Skip Page Navigation
NASA JPL Caltech
NASA Logo - Jet Propulsion Laboratory + View the NASA Portal
+ Center for Near-Earth Object Studies
JPL Home Earth Solar System Stars & Galaxies Technology
JPL Solar System Dynamics
BODIES ORBITS EPHEMERIDES TOOLS PHYSICAL DATA DISCOVERY FAQ SITE MAP
IMPORTANT: The SSD Announcement email list is now available. Major changes are coming in the near future, including possible hostname and/or URL changes. To be notified of such changes, subscribe to this email list.

Please visit this page for more details.


JPL Small-Body Database Browser
Search: [ help ]  
469095 (2015 CC4)
Classification: Main-belt Asteroid          SPK-ID: 2469095
Ephemeris | Orbit Diagram | Orbital Elements | Mission Design | Physical Parameters | Discovery Circumstances ]

[ show orbit diagram ]
Orbital Elements at Epoch 2459000.5 (2020-May-31.0) TDB
Reference: JPL 8 (heliocentric ecliptic J2000)
 Element Value Uncertainty (1-sigma)   Units 
e .1762408208472524 7.5158e-08  
a 2.210936379955091 2.9453e-08 au
q 1.821279137510753 1.6496e-07 au
i 6.562509829079448 7.7764e-06 deg
node 143.2198694957075 7.3354e-05 deg
peri 254.140577047465 8.0152e-05 deg
M 305.4660014831758 4.3844e-05 deg
tp 2459182.397879773211
(2020-Nov-28.89787977)
0.0001487 TDB
period 1200.778202576759
3.29
2.3994e-05
6.569e-08
d
yr
n .2998055754405546 5.9908e-09 deg/d
Q 2.600593622399428 3.4644e-08 au
  Orbit Determination Parameters
   # obs. used (total)      80  
   data-arc span      5223 days (14.30 yr)  
   first obs. used      2005-01-16  
   last obs. used      2019-05-06  
   planetary ephem.      DE431  
   SB-pert. ephem.      SB431-N16  
   condition code      0  
   norm. resid. RMS      .5913  
   source      ORB  
   producer      Otto Matic  
   solution date      2019-May-30 10:18:40  

Additional Information
 Earth MOID = .841031 au 
 Jupiter MOID = 2.83603 au 
 T_jup = 3.628 
[ show covariance matrix ]

Ephemeris | Orbit Diagram | Orbital Elements | Mission Design | Physical Parameters | Discovery Circumstances ]

Physical Parameter Table
Parameter Symbol Value Units Sigma Reference Notes
absolute magnitude H 18.0   n/a MPO434685  

469095 (2015 CC4)          Discovered 2007-Nov-17 by CSS at Catalina
Reference: Last Updated: 2016-06-21

Alternate Designations
 2015 CC4 = 2007 WK12 
Ephemeris | Orbit Diagram | Orbital Elements | Mission Design | Physical Parameters | Discovery Circumstances ]
ABOUT SSD CREDITS/AWARDS PRIVACY/COPYRIGHT GLOSSARY LINKS
FirstGov 2020-May-31 01:42 UT
(server date/time)  
NASA Home Page
Site Manager:   Ryan S. Park
Webmaster  Alan B. Chamberlin